Overview Statistics Trail Chart Weather Telemetry Raw packets
 

This is the latest recevied weather packets stored in our database for station/object LRTR. If no packets are shown the sender has not sent any weather packets the latest 10 day(s).

<< 2 3 4 5 6 7 8 >>
Time Temp. Humidity Pressure Rain* Wind** Luminosity Snow
1777638785 16.11° C 31% 1024 hPa - - - -
1777637900 15° C 29% 1025 hPa - - - -
1777636986 15° C 29% 1025 hPa - - - -
1777636085 15° C 31% 1025 hPa - - - -
1777635185 15° C 31% 1025 hPa - - - -
1777634285 13.89° C 36% 1025 hPa - - - -
1777633385 13.89° C 36% 1025 hPa - - - -
1777632485 13.89° C 36% 1025 hPa - - - -
1777631585 13.89° C 36% 1025 hPa - - - -
1777630685 13.89° C 36% 1026 hPa - - - -
1777629785 13.89° C 36% 1026 hPa - - - -
1777628885 12.78° C 41% 1026 hPa - - - -
1777627985 12.78° C 41% 1026 hPa - - - -
1777627085 12.78° C 41% 1026 hPa - - - -
1777626184 12.78° C 41% 1026 hPa - - - -
1777625285 12.22° C 44% 1026 hPa - - - -
1777624385 12.22° C 44% 1026 hPa - - - -
1777623503 11.11° C 54% 1026 hPa - - - -
1777622585 11.11° C 54% 1026 hPa - - - -
1777621685 11.11° C 54% 1026 hPa - - - -
1777620788 11.11° C 54% 1026 hPa - - - -
1777619885 8.89° C 66% 1026 hPa - - - -
1777618985 8.89° C 66% 1026 hPa - - - -
1777618088 7.78° C 71% 1026 hPa - - - -
1777617185 7.78° C 71% 1026 hPa - - - -

* Rain since midnight (hover to see other rain measurements)
** Current wind speed in m/s (hover to see current wind gust speed)